VRG263 SBMQ-SYCJ

Flight info

Callsign VRG263
Flight time 1h 37m
Altitude 34000
Route BOLAR DCT MUPAT UZ41 OTONI UG449 ZY UG443 GEBON DCT SISEX
Aircraft B738/M-SDE2E3FGHIRWXY/LB1

Departure

Time 2026-04-20 16:31
Airport Macapá - Alberto Alcolumbre International Airport (SBMQ)

Arrival

Time 2026-04-20 18:08
Airport Cheddi Jagan International Airport (SYCJ)
Time Latitude Longitude Altitude Speed Heading
2026-04-20 16:15 0.05049 -51.06926 59 ft 0 kts 147°
2026-04-20 16:27 0.05060 -51.06903 59 ft 11 kts 32°
2026-04-20 16:28 0.05141 -51.06876 59 ft 12 kts 353°
2026-04-20 16:28 0.05200 -51.06898 59 ft 7 kts 332°
2026-04-20 16:28 0.05249 -51.06908 59 ft 8 kts
2026-04-20 16:28 0.05331 -51.06805 58 ft 27 kts 57°
2026-04-20 16:29 0.05438 -51.06646 57 ft 27 kts 55°
2026-04-20 16:29 0.05534 -51.06503 55 ft 13 kts 51°
2026-04-20 16:29 0.05586 -51.06450 54 ft 9 kts 85°
2026-04-20 16:29 0.05563 -51.06442 54 ft 0 kts 235°
2026-04-20 16:30 0.05473 -51.06583 56 ft 62 kts 238°
2026-04-20 16:30 0.05085 -51.07183 60 ft 137 kts 237°
2026-04-20 16:30 0.04468 -51.08145 283 ft 177 kts 238°
2026-04-20 16:31 0.03802 -51.09170 1170 ft 176 kts 242°
2026-04-20 16:31 0.03482 -51.10364 1792 ft 185 kts 276°
2026-04-20 16:31 0.03979 -51.11574 2258 ft 196 kts 313°
2026-04-20 16:31 0.05199 -51.12286 2698 ft 211 kts 349°
2026-04-20 16:32 0.06726 -51.12234 3207 ft 225 kts 12°
2026-04-20 16:32 0.08301 -51.11869 3746 ft 239 kts 15°
2026-04-20 16:32 0.09982 -51.11457 4372 ft 252 kts 15°
2026-04-20 16:32 0.11721 -51.11050 5184 ft 258 kts 15°
2026-04-20 16:33 0.13539 -51.10634 5786 ft 272 kts 15°
2026-04-20 16:33 0.15400 -51.10209 6557 ft 278 kts 15°
2026-04-20 16:33 0.17305 -51.09776 7330 ft 283 kts 15°
2026-04-20 16:33 0.19243 -51.09334 8128 ft 288 kts 15°
2026-04-20 16:34 0.21220 -51.08883 8880 ft 293 kts 15°
2026-04-20 16:34 0.23240 -51.08423 9629 ft 297 kts 15°
2026-04-20 16:34 0.25261 -51.07961 10355 ft 302 kts 15°
2026-04-20 16:34 0.27385 -51.07474 10801 ft 317 kts 15°
2026-04-20 16:35 0.29583 -51.06970 11251 ft 332 kts 15°
2026-04-20 16:35 0.31918 -51.06435 11667 ft 347 kts 15°
2026-04-20 16:35 0.34347 -51.05881 12064 ft 361 kts 15°
2026-04-20 16:35 0.36853 -51.05307 12418 ft 375 kts 14°
2026-04-20 16:36 0.39470 -51.04709 12775 ft 389 kts 14°
2026-04-20 16:36 0.42150 -51.04099 13280 ft 396 kts 15°
2026-04-20 16:36 0.44873 -51.03480 13913 ft 400 kts 14°
2026-04-20 16:36 0.47610 -51.02860 14520 ft 403 kts 15°
2026-04-20 16:37 0.50387 -51.02231 15143 ft 406 kts 14°
2026-04-20 16:37 0.53165 -51.01601 15688 ft 411 kts 14°
2026-04-20 16:37 0.55976 -51.00962 16252 ft 414 kts 15°
2026-04-20 16:37 0.58833 -51.00311 16825 ft 417 kts 14°
2026-04-20 16:38 0.61679 -50.99662 17392 ft 420 kts 14°
2026-04-20 16:38 0.64573 -50.99002 17921 ft 424 kts 14°
2026-04-20 16:38 0.67442 -50.98347 18439 ft 427 kts 14°
2026-04-20 16:38 0.70465 -50.97707 18934 ft 432 kts 11°
2026-04-20 16:39 0.73480 -50.97424 19447 ft 436 kts
2026-04-20 16:39 0.76533 -50.97635 19921 ft 441 kts 352°
2026-04-20 16:39 0.79563 -50.98356 20387 ft 446 kts 343°
2026-04-20 16:39 0.82465 -50.99578 20869 ft 450 kts 333°
2026-04-20 16:40 0.85147 -51.01270 21361 ft 454 kts 323°
2026-04-20 16:40 0.87522 -51.03356 21818 ft 457 kts 315°
2026-04-20 16:40 0.89676 -51.05665 22242 ft 460 kts 312°
2026-04-20 16:40 0.91857 -51.08091 22676 ft 464 kts 313°
2026-04-20 16:41 0.94074 -51.10446 23138 ft 466 kts 314°
2026-04-20 16:41 0.96380 -51.12729 23531 ft 470 kts 316°
2026-04-20 16:41 0.98805 -51.14967 23877 ft 474 kts 319°
2026-04-20 16:41 1.01303 -51.17146 24304 ft 476 kts 320°
2026-04-20 16:42 1.03850 -51.19285 24763 ft 478 kts 321°
2026-04-20 16:42 1.06430 -51.21399 25122 ft 482 kts 321°
2026-04-20 16:42 1.09051 -51.23515 25520 ft 484 kts 321°
2026-04-20 16:42 1.11725 -51.25658 25895 ft 487 kts 322°
2026-04-20 16:43 1.14391 -51.27789 26214 ft 491 kts 322°
2026-04-20 16:43 1.17090 -51.29944 26522 ft 495 kts 322°
2026-04-20 16:43 1.19799 -51.32108 26945 ft 496 kts 322°
2026-04-20 16:43 1.22517 -51.34280 27282 ft 498 kts 322°
2026-04-20 16:44 1.25213 -51.36437 27763 ft 497 kts 322°
2026-04-20 16:44 1.27906 -51.38596 28292 ft 494 kts 322°
2026-04-20 16:44 1.30585 -51.40743 28893 ft 490 kts 322°
2026-04-20 16:44 1.33257 -51.42887 29556 ft 485 kts 322°
2026-04-20 16:45 1.35874 -51.44987 30269 ft 478 kts 322°
2026-04-20 16:45 1.38467 -51.47069 30912 ft 473 kts 322°
2026-04-20 16:45 1.41021 -51.49120 31351 ft 472 kts 322°
2026-04-20 16:45 1.43607 -51.51194 31802 ft 471 kts 322°
2026-04-20 16:46 1.46183 -51.53260 32255 ft 469 kts 322°
2026-04-20 16:46 1.48722 -51.55297 32740 ft 466 kts 322°
2026-04-20 16:46 1.51267 -51.57339 33270 ft 463 kts 322°
2026-04-20 16:46 1.53808 -51.59378 33647 ft 463 kts 322°
2026-04-20 16:47 1.56353 -51.61420 34028 ft 463 kts 322°
2026-04-20 16:47 1.58872 -51.63440 34464 ft 461 kts 322°
2026-04-20 16:47 1.61423 -51.65487 34706 ft 464 kts 322°
2026-04-20 16:47 1.63984 -51.67541 34822 ft 469 kts 322°
2026-04-20 16:48 1.66567 -51.69614 34939 ft 473 kts 322°
2026-04-20 16:48 1.69165 -51.71700 35069 ft 477 kts 322°
2026-04-20 16:48 1.71807 -51.73822 35343 ft 477 kts 322°
2026-04-20 16:48 1.74420 -51.75920 35683 ft 476 kts 321°
2026-04-20 16:49 1.77042 -51.78027 35934 ft 476 kts 321°
2026-04-20 16:49 1.79706 -51.80166 35929 ft 471 kts 321°
2026-04-20 16:49 1.84874 -51.84316 35932 ft 468 kts 322°
2026-04-20 16:50 1.90060 -51.88478 35930 ft 469 kts 322°
2026-04-20 16:50 1.95239 -51.92635 35932 ft 467 kts 321°
2026-04-20 16:51 2.00377 -51.96760 35932 ft 466 kts 321°
2026-04-20 16:51 2.05507 -52.00880 35941 ft 468 kts 321°
2026-04-20 16:52 2.10670 -52.05025 35954 ft 469 kts 321°
2026-04-20 16:52 2.15879 -52.09210 35958 ft 469 kts 321°
2026-04-20 16:53 2.21072 -52.13383 35961 ft 469 kts 322°
2026-04-20 16:53 2.26228 -52.17525 35956 ft 469 kts 322°
2026-04-20 16:54 2.31425 -52.21699 35945 ft 469 kts 322°
2026-04-20 16:54 2.36562 -52.25827 35944 ft 469 kts 322°
2026-04-20 16:55 2.41718 -52.29970 35938 ft 471 kts 322°
2026-04-20 16:55 2.46885 -52.34122 35933 ft 469 kts 322°
2026-04-20 16:56 2.52072 -52.38289 35928 ft 470 kts 322°
2026-04-20 16:56 2.57220 -52.42428 35927 ft 469 kts 322°
2026-04-20 16:57 2.62382 -52.46577 35926 ft 470 kts 322°
2026-04-20 16:57 2.67496 -52.50730 35925 ft 469 kts 320°
2026-04-20 16:58 2.72362 -52.55220 35930 ft 470 kts 316°
2026-04-20 16:58 2.77062 -52.59849 35926 ft 470 kts 316°
2026-04-20 16:59 2.81798 -52.64514 35925 ft 469 kts 316°
2026-04-20 16:59 2.86545 -52.69142 35926 ft 468 kts 316°
2026-04-20 17:00 2.93617 -52.75982 35927 ft 468 kts 317°
2026-04-20 17:01 2.98386 -52.80579 35931 ft 468 kts 317°
2026-04-20 17:01 3.03134 -52.85152 35938 ft 466 kts 317°
2026-04-20 17:02 3.07879 -52.89724 35943 ft 468 kts 317°
2026-04-20 17:02 3.12670 -52.94341 35946 ft 467 kts 317°
2026-04-20 17:03 3.17429 -52.98930 35949 ft 466 kts 317°
2026-04-20 17:03 3.22168 -53.03500 35947 ft 465 kts 317°
2026-04-20 17:04 3.26911 -53.08074 35944 ft 465 kts 317°
2026-04-20 17:04 3.31637 -53.12633 35945 ft 466 kts 317°
2026-04-20 17:05 3.36369 -53.17195 35941 ft 467 kts 317°
2026-04-20 17:05 3.41128 -53.21784 35945 ft 466 kts 317°
2026-04-20 17:06 3.45870 -53.26360 35951 ft 468 kts 317°
2026-04-20 17:06 3.50584 -53.30909 35948 ft 468 kts 317°
2026-04-20 17:07 3.55338 -53.35498 35945 ft 467 kts 317°
2026-04-20 17:07 3.60070 -53.40065 35947 ft 469 kts 317°
2026-04-20 17:08 3.64042 -53.43898 35947 ft 469 kts 317°
2026-04-20 17:08 3.69576 -53.49243 35953 ft 470 kts 317°
2026-04-20 17:09 3.74384 -53.53892 35954 ft 471 kts 317°
2026-04-20 17:09 3.79138 -53.58489 35951 ft 471 kts 317°
2026-04-20 17:10 3.83918 -53.63116 35947 ft 470 kts 317°
2026-04-20 17:10 3.88710 -53.67752 35945 ft 470 kts 317°
2026-04-20 17:11 3.93477 -53.72361 35945 ft 472 kts 317°
2026-04-20 17:11 3.98236 -53.76963 35946 ft 473 kts 317°
2026-04-20 17:12 4.03022 -53.81596 35945 ft 473 kts 317°
2026-04-20 17:12 4.07016 -53.85463 35946 ft 475 kts 317°
2026-04-20 17:13 4.12640 -53.90907 35943 ft 475 kts 317°
2026-04-20 17:13 4.17431 -53.95546 35940 ft 474 kts 316°
2026-04-20 17:14 4.22260 -54.00225 35937 ft 474 kts 317°
2026-04-20 17:14 4.27064 -54.04879 35935 ft 477 kts 317°
2026-04-20 17:15 4.31912 -54.09575 35933 ft 477 kts 316°
2026-04-20 17:15 4.36732 -54.14246 35934 ft 476 kts 316°
2026-04-20 17:16 4.41575 -54.18939 35933 ft 477 kts 316°
2026-04-20 17:16 4.46403 -54.23617 35929 ft 478 kts 316°
2026-04-20 17:17 4.51297 -54.28363 35928 ft 478 kts 316°
2026-04-20 17:17 4.56132 -54.33052 35932 ft 479 kts 316°
2026-04-20 17:18 4.61024 -54.37795 35934 ft 477 kts 316°
2026-04-20 17:18 4.65904 -54.42529 35932 ft 479 kts 316°
2026-04-20 17:19 4.70845 -54.47296 35927 ft 480 kts 317°
2026-04-20 17:19 4.75808 -54.52040 35921 ft 480 kts 317°
2026-04-20 17:20 4.80758 -54.56762 35920 ft 480 kts 317°
2026-04-20 17:20 4.85752 -54.61530 35915 ft 480 kts 317°
2026-04-20 17:21 4.90668 -54.66230 35913 ft 479 kts 316°
2026-04-20 17:21 4.95617 -54.70964 35913 ft 480 kts 317°
2026-04-20 17:22 5.00577 -54.75711 35916 ft 482 kts 316°
2026-04-20 17:22 5.05523 -54.80447 35914 ft 480 kts 316°
2026-04-20 17:23 5.10470 -54.85187 35914 ft 481 kts 316°
2026-04-20 17:23 5.15433 -54.89940 35912 ft 483 kts 316°
2026-04-20 17:24 5.20382 -54.94680 35913 ft 483 kts 316°
2026-04-20 17:24 5.25303 -54.99399 35913 ft 483 kts 316°
2026-04-20 17:25 5.30285 -55.04179 35914 ft 484 kts 316°
2026-04-20 17:25 5.35237 -55.08931 35918 ft 483 kts 316°
2026-04-20 17:26 5.40221 -55.13711 35924 ft 484 kts 316°
2026-04-20 17:26 5.44692 -55.18921 35930 ft 482 kts 301°
2026-04-20 17:27 5.47569 -55.25133 35932 ft 483 kts 289°
2026-04-20 17:27 5.49814 -55.31598 35932 ft 480 kts 287°
2026-04-20 17:28 5.51895 -55.37951 35929 ft 481 kts 286°
2026-04-20 17:28 5.54045 -55.44466 35930 ft 481 kts 286°
2026-04-20 17:29 5.56212 -55.50932 35930 ft 481 kts 287°
2026-04-20 17:29 5.58405 -55.57391 35925 ft 482 kts 287°
2026-04-20 17:30 5.60607 -55.63827 35926 ft 480 kts 287°
2026-04-20 17:30 5.62817 -55.70282 35925 ft 481 kts 287°
2026-04-20 17:31 5.65020 -55.76734 35920 ft 479 kts 287°
2026-04-20 17:31 5.67209 -55.83160 35912 ft 479 kts 287°
2026-04-20 17:32 5.69396 -55.89586 35908 ft 480 kts 286°
2026-04-20 17:32 5.71593 -55.96039 35908 ft 480 kts 287°
2026-04-20 17:33 5.73783 -56.02472 35906 ft 478 kts 287°
2026-04-20 17:33 5.75981 -56.08927 35905 ft 479 kts 287°
2026-04-20 17:34 5.78162 -56.15337 35906 ft 481 kts 286°
2026-04-20 17:34 5.80368 -56.21830 35905 ft 480 kts 286°
2026-04-20 17:35 5.82553 -56.28265 35906 ft 481 kts 286°
2026-04-20 17:35 5.84760 -56.34759 35902 ft 481 kts 286°
2026-04-20 17:36 5.86970 -56.41261 35904 ft 483 kts 286°
2026-04-20 17:36 5.89168 -56.47733 35903 ft 483 kts 287°
2026-04-20 17:37 5.91369 -56.54216 35904 ft 483 kts 287°
2026-04-20 17:37 5.93196 -56.59600 35904 ft 483 kts 286°
2026-04-20 17:38 5.95765 -56.67176 35903 ft 484 kts 287°
2026-04-20 17:38 5.97982 -56.73721 35905 ft 484 kts 286°
2026-04-20 17:39 5.99823 -56.79158 35904 ft 486 kts 286°
2026-04-20 17:39 6.02359 -56.86631 35315 ft 473 kts 286°
2026-04-20 17:39 6.03435 -56.89803 34595 ft 475 kts 286°
2026-04-20 17:40 6.04508 -56.92971 33816 ft 475 kts 286°
2026-04-20 17:40 6.05569 -56.96108 33001 ft 476 kts 286°
2026-04-20 17:40 6.06650 -56.99308 32229 ft 477 kts 286°
2026-04-20 17:40 6.07361 -57.01412 31686 ft 478 kts 286°
2026-04-20 17:41 6.08803 -57.05678 30515 ft 482 kts 286°
2026-04-20 17:41 6.09889 -57.08894 29645 ft 484 kts 286°
2026-04-20 17:41 6.10626 -57.11071 29030 ft 486 kts 286°
2026-04-20 17:41 6.12066 -57.15332 28099 ft 482 kts 286°
2026-04-20 17:42 6.12788 -57.17466 27692 ft 479 kts 287°
2026-04-20 17:42 6.13849 -57.20599 27432 ft 466 kts 287°
2026-04-20 17:42 6.14885 -57.23658 26900 ft 461 kts 287°
2026-04-20 17:42 6.15915 -57.26702 26415 ft 455 kts 287°
2026-04-20 17:43 6.17260 -57.30681 25720 ft 448 kts 287°
2026-04-20 17:43 6.17941 -57.32695 25386 ft 444 kts 287°
2026-04-20 17:43 6.18915 -57.35582 24857 ft 440 kts 287°
2026-04-20 17:43 6.20214 -57.39434 24186 ft 432 kts 287°
2026-04-20 17:44 6.20863 -57.41363 23853 ft 428 kts 287°
2026-04-20 17:44 6.21814 -57.44184 23326 ft 424 kts 287°
2026-04-20 17:44 6.22766 -57.47003 22864 ft 417 kts 288°
2026-04-20 17:44 6.23993 -57.50637 22269 ft 409 kts 288°
2026-04-20 17:45 6.24904 -57.53334 21712 ft 406 kts 288°
2026-04-20 17:45 6.25516 -57.55144 21352 ft 403 kts 288°
2026-04-20 17:45 6.26416 -57.57810 20742 ft 402 kts 288°
2026-04-20 17:45 6.27602 -57.61320 20077 ft 395 kts 288°
2026-04-20 17:46 6.28187 -57.63053 19715 ft 393 kts 288°
2026-04-20 17:46 6.29076 -57.65683 19102 ft 392 kts 288°
2026-04-20 17:46 6.30246 -57.69151 18395 ft 387 kts 288°
2026-04-20 17:46 6.31100 -57.71692 17852 ft 384 kts 287°
2026-04-20 17:47 6.31671 -57.73388 17525 ft 381 kts 288°
2026-04-20 17:47 6.32454 -57.75942 16902 ft 380 kts 283°
2026-04-20 17:47 6.32955 -57.78568 16110 ft 384 kts 276°
2026-04-20 17:47 6.33067 -57.81235 15321 ft 387 kts 269°
2026-04-20 17:48 6.32944 -57.83967 14466 ft 392 kts 266°
2026-04-20 17:48 6.32712 -57.86702 13646 ft 395 kts 265°
2026-04-20 17:48 6.32357 -57.90331 12822 ft 391 kts 264°
2026-04-20 17:48 6.32181 -57.92136 12600 ft 384 kts 264°
2026-04-20 17:49 6.31933 -57.94794 12348 ft 371 kts 265°
2026-04-20 17:49 6.31632 -57.98152 12046 ft 355 kts 265°
2026-04-20 17:49 6.31488 -57.99794 11870 ft 349 kts 264°
2026-04-20 17:49 6.31213 -58.03006 11214 ft 347 kts 264°
2026-04-20 17:50 6.31077 -58.04638 10831 ft 348 kts 264°
2026-04-20 17:50 6.30814 -58.07872 10067 ft 350 kts 264°
2026-04-20 17:50 6.30680 -58.09516 9687 ft 350 kts 264°
2026-04-20 17:50 6.30419 -58.12756 8938 ft 350 kts 264°
2026-04-20 17:51 6.30286 -58.14393 8550 ft 345 kts 265°
2026-04-20 17:51 6.30097 -58.16733 7991 ft 335 kts 265°
2026-04-20 17:51 6.29910 -58.19051 7398 ft 327 kts 265°
2026-04-20 17:51 6.29663 -58.22037 6669 ft 316 kts 265°
2026-04-20 17:52 6.29541 -58.23512 6306 ft 311 kts 266°
2026-04-20 17:52 6.29370 -58.25649 5775 ft 304 kts 266°
2026-04-20 17:52 6.29205 -58.27742 5322 ft 295 kts 266°
2026-04-20 17:52 6.29052 -58.29738 5185 ft 276 kts 268°
2026-04-20 17:53 6.29093 -58.31598 5059 ft 260 kts 281°
2026-04-20 17:53 6.29719 -58.33250 4807 ft 247 kts 310°
2026-04-20 17:53 6.30887 -58.34474 4540 ft 240 kts 320°
2026-04-20 17:53 6.32557 -58.35975 4199 ft 239 kts 319°
2026-04-20 17:54 6.33357 -58.36730 4045 ft 236 kts 319°
2026-04-20 17:54 6.35103 -58.37975 3745 ft 222 kts 342°
2026-04-20 17:54 6.36580 -58.38063 3537 ft 208 kts 17°
2026-04-20 17:54 6.37445 -58.37666 3317 ft 198 kts 39°
2026-04-20 17:55 6.38718 -58.36449 2905 ft 183 kts 48°
2026-04-20 17:55 6.39312 -58.35841 2720 ft 178 kts 46°
2026-04-20 17:55 6.40195 -58.34984 2490 ft 176 kts 45°
2026-04-20 17:55 6.41078 -58.34119 2245 ft 178 kts 46°
2026-04-20 17:56 6.41961 -58.33229 1773 ft 178 kts 46°
2026-04-20 17:56 6.42800 -58.32398 1656 ft 157 kts 46°
2026-04-20 17:56 6.43558 -58.31650 1454 ft 152 kts 46°
2026-04-20 17:56 6.44297 -58.30918 1222 ft 143 kts 47°
2026-04-20 17:57 6.45256 -58.29967 1024 ft 147 kts 46°
2026-04-20 17:57 6.45745 -58.29484 878 ft 145 kts 46°
2026-04-20 17:57 6.46459 -58.28775 701 ft 144 kts 47°
2026-04-20 17:57 6.47178 -58.28062 518 ft 146 kts 46°
2026-04-20 17:58 6.47907 -58.27341 325 ft 144 kts 46°
2026-04-20 17:58 6.48626 -58.26622 143 ft 144 kts 46°
2026-04-20 17:58 6.49574 -58.25698 108 ft 143 kts 46°
2026-04-20 17:58 6.50302 -58.24982 327 ft 142 kts 46°
2026-04-20 17:59 6.50785 -58.24515 667 ft 145 kts 45°
2026-04-20 17:59 6.51597 -58.23762 524 ft 166 kts 50°
2026-04-20 17:59 6.52210 -58.22834 467 ft 150 kts 60°
2026-04-20 17:59 6.52989 -58.22074 592 ft 167 kts 41°
2026-04-20 18:00 6.53882 -58.21338 1443 ft 176 kts 43°
2026-04-20 18:00 6.54757 -58.19936 1955 ft 163 kts 81°
2026-04-20 18:00 6.54751 -58.19165 1914 ft 163 kts 104°
2026-04-20 18:00 6.54052 -58.18210 1548 ft 185 kts 144°
2026-04-20 18:01 6.52796 -58.17129 1516 ft 165 kts 112°
2026-04-20 18:01 6.52515 -58.16419 1528 ft 159 kts 107°
2026-04-20 18:01 6.52179 -58.15313 1540 ft 159 kts 104°
2026-04-20 18:01 6.51593 -58.14270 1706 ft 183 kts 141°
2026-04-20 18:02 6.50359 -58.13894 1953 ft 186 kts 186°
2026-04-20 18:02 6.48976 -58.14866 1968 ft 181 kts 231°
2026-04-20 18:02 6.48449 -58.15580 1963 ft 183 kts 232°
2026-04-20 18:02 6.47664 -58.16627 1965 ft 181 kts 231°
2026-04-20 18:03 6.46867 -58.17664 1967 ft 180 kts 231°
2026-04-20 18:03 6.46067 -58.18651 1963 ft 180 kts 227°
2026-04-20 18:03 6.45225 -58.19638 1965 ft 181 kts 227°
2026-04-20 18:03 6.44386 -58.20626 1967 ft 180 kts 228°
2026-04-20 18:04 6.43557 -58.21598 1963 ft 180 kts 228°
2026-04-20 18:04 6.42714 -58.22585 1959 ft 181 kts 228°
2026-04-20 18:04 6.41871 -58.23581 1952 ft 178 kts 228°
2026-04-20 18:04 6.41036 -58.24561 1962 ft 180 kts 229°
2026-04-20 18:05 6.39323 -58.27037 1936 ft 184 kts 267°
2026-04-20 18:05 6.39709 -58.28235 1859 ft 178 kts 320°
2026-04-20 18:05 6.40420 -58.28690 1793 ft 174 kts 342°
2026-04-20 18:06 6.41558 -58.29102 1775 ft 167 kts 345°
2026-04-20 18:06 6.43111 -58.29582 1642 ft 170 kts 356°
2026-04-20 18:06 6.44315 -58.29627 1404 ft 169 kts
2026-04-20 18:06 6.45519 -58.29621 956 ft 169 kts
2026-04-20 18:07 6.46286 -58.29485 765 ft 157 kts 23°
2026-04-20 18:07 6.47089 -58.28850 846 ft 144 kts 60°
2026-04-20 18:07 6.47615 -58.27972 699 ft 149 kts 62°
2026-04-20 18:07 6.48186 -58.27117 351 ft 144 kts 48°
2026-04-20 18:08 6.48888 -58.26393 96 ft 140 kts 46°
2026-04-20 18:08 6.49513 -58.25761 100 ft 101 kts 46°
2026-04-20 18:08 6.49837 -58.25433 100 ft 39 kts 45°
2026-04-20 18:08 6.50024 -58.25243 98 ft 27 kts 43°
2026-04-20 18:09 6.50100 -58.25173 97 ft 12 kts 39°
2026-04-20 18:09 6.50127 -58.25181 97 ft 2 kts 321°
2026-04-20 18:09 6.50140 -58.25191 97 ft 1 kts 319°
2026-04-20 18:09 6.50157 -58.25210 97 ft 4 kts 311°
2026-04-20 18:10 6.50180 -58.25237 97 ft 4 kts 312°
2026-04-20 18:10 6.50203 -58.25256 97 ft 7 kts 322°
2026-04-20 18:10 6.50245 -58.25257 97 ft 8 kts 34°
2026-04-20 18:10 6.50290 -58.25243 97 ft 5 kts 328°
2026-04-20 18:11 6.50315 -58.25266 97 ft 0 kts 314°
2026-04-20 18:11 6.50316 -58.25267 97 ft 0 kts 314°